CW2722 Weather Reports


time (UTC)temp
C
wind
direction
speed
KPH
gust
KPH
rain 1hr
cm
rain 24hr
cm
rain mn
cm
humidity
%
barometer
mb
20260504192401 27 333 0.0 4.8 0.00 0.00 0.00 40 1014.8
20260504192314 27 351 0.0 3.2 0.00 0.00 0.00 40 1014.7
20260504192213 27 108 0.0 3.2 0.00 0.00 0.00 39 1014.8
20260504192114 27 103 0.0 3.2 0.00 0.00 0.00 38 1014.8
20260504192011 27 123 0.0 3.2 0.00 0.00 0.00 38 1014.9
20260504191944 27 273 0.0 3.2 0.00 0.00 0.00 38 1014.9
20260504191923 27 273 0.0 3.2 0.00 0.00 0.00 38 1014.9
20260504191711 27 273 0.0 3.2 0.00 0.00 0.00 41 1014.9
20260504191638 27 263 0.0 3.2 0.00 0.00 0.00 39 1014.9
20260504191629 27 263 0.0 3.2 0.00 0.00 0.00 40 1014.9
20260504191413 27 193 0.0 3.2 0.00 0.00 0.00 40 1014.9
20260504191402 27 198 0.0 3.2 0.00 0.00 0.00 40 1014.9
20260504191309 27 258 0.0 3.2 0.00 0.00 0.00 41 1014.9
20260504191210 27 245 0.0 3.2 0.00 0.00 0.00 41 1014.9
20260504191135 27 167 0.0 3.2 0.00 0.00 0.00 43 1014.9
20260504191126 27 152 0.0 3.2 0.00 0.00 0.00 40 1014.9
20260504191002 26 132 0.0 3.2 0.00 0.00 0.00 41 1015.0
20260504190956 26 129 0.0 3.2 0.00 0.00 0.00 41 1015.0
20260504190933 27 153 0.0 3.2 0.00 0.00 0.00 41 1014.9
20260504190604 26 121 0.0 4.8 0.00 0.00 0.00 43 1015.0
20260504190505 26 134 0.0 4.8 0.00 0.00 0.00 44 1015.0
20260504190439 26 220 1.6 4.8 0.00 0.00 0.00 42 1015.1
20260504190434 26 50 1.6 4.8 0.00 0.00 0.00 44 1015.2
20260504190419 26 123 1.6 4.8 0.00 0.00 0.00 41 1015.0
20260504190229 26 241 1.6 4.8 0.00 0.00 0.00 43 1015.2
20260504190220 26 121 1.6 4.8 0.00 0.00 0.00 41 1015.2
20260504190034 26 211 1.6 4.8 0.00 0.00 0.00 41 1015.3
20260504190023 26 228 1.6 4.8 0.00 0.00 0.00 43 1015.1
20260504190007 26 50 1.6 4.8 0.00 0.00 0.00 44 1015.2
20260504185808 26 113 1.6 8.0 0.00 0.00 0.00 44 1015.3
20260504185802 26 116 1.6 4.8 0.00 0.00 0.00 43 1015.2
20260504185756 26 253 1.6 8.0 0.00 0.00 0.00 43 1015.3
20260504185750 26 241 1.6 8.0 0.00 0.00 0.00 44 1015.3
20260504185745 26 252 1.6 8.0 0.00 0.00 0.00 43 1015.3
20260504185739 26 286 1.6 8.0 0.00 0.00 0.00 42 1015.3
20260504185727 26 107 1.6 4.8 0.00 0.00 0.00 41 1015.2
20260504185709 26 122 0.0 4.8 0.00 0.00 0.00 42 1015.3
20260504185652 26 223 1.6 4.8 0.00 0.00 0.00 43 1015.3
20260504185636 26 211 1.6 4.8 0.00 0.00 0.00 41 1015.3
20260504185003 26 261 1.6 8.0 0.00 0.00 0.00 42 1015.3
20260504184823 26 278 1.6 8.0 0.00 0.00 0.00 42 1015.3
20260504184815 26 279 1.6 8.0 0.00 0.00 0.00 42 1015.3
20260504184556 26 269 1.6 8.0 0.00 0.00 0.00 42 1015.2
20260504184453 26 213 1.6 8.0 0.00 0.00 0.00 42 1015.3
20260504184400 26 227 1.6 8.0 0.00 0.00 0.00 42 1015.3
20260504184353 26 217 1.6 8.0 0.00 0.00 0.00 42 1015.3
20260504184253 26 276 1.6 6.4 0.00 0.00 0.00 42 1015.3
20260504184153 26 123 1.6 4.8 0.00 0.00 0.00 41 1015.3
20260504184054 26 123 1.6 4.8 0.00 0.00 0.00 41 1015.4
20260504183952 26 164 1.6 4.8 0.00 0.00 0.00 42 1015.4
20260504183926 26 136 1.6 6.4 0.00 0.00 0.00 44 1015.4
20260504183915 26 128 1.6 4.8 0.00 0.00 0.00 42 1015.4
20260504183910 26 114 1.6 4.8 0.00 0.00 0.00 42 1015.4
20260504183652 26 256 1.6 8.0 0.00 0.00 0.00 42 1015.4
20260504183552 26 256 1.6 8.0 0.00 0.00 0.00 43 1015.4
20260504183452 26 254 1.6 8.0 0.00 0.00 0.00 44 1015.4
20260504183357 26 256 1.6 8.0 0.00 0.00 0.00 43 1015.4
20260504183352 26 234 1.6 8.0 0.00 0.00 0.00 43 1015.4
20260504183252 26 86 1.6 8.0 0.00 0.00 0.00 41 1015.4
20260504183153 26 300 1.6 8.0 0.00 0.00 0.00 41 1015.4
20260504183052 26 284 1.6 8.0 0.00 0.00 0.00 42 1015.4
20260504182951 26 290 1.6 8.0 0.00 0.00 0.00 42 1015.5
20260504182857 26 277 1.6 8.0 0.00 0.00 0.00 42 1015.5
20260504182852 26 274 1.6 8.0 0.00 0.00 0.00 41 1015.5
20260504182818 27 113 0.0 4.8 0.00 0.00 0.00 41 1015.5
20260504182808 26 119 0.0 6.4 0.00 0.00 0.00 41 1015.5
20260504182552 27 245 0.0 4.8 0.00 0.00 0.00 42 1015.5
20260504182452 27 256 0.0 4.8 0.00 0.00 0.00 42 1015.5
20260504182358 27 177 0.0 4.8 0.00 0.00 0.00 42 1015.5
20260504182353 27 241 0.0 4.8 0.00 0.00 0.00 42 1015.5
20260504182252 27 279 0.0 4.8 0.00 0.00 0.00 42 1015.5
20260504182152 27 325 0.0 1.6 0.00 0.00 0.00 46 1015.5
20260504182051 27 263 0.0 8.0 0.00 0.00 0.00 43 1015.4
20260504181951 27 264 0.0 8.0 0.00 0.00 0.00 43 1015.5
20260504181852 26 269 0.0 8.0 0.00 0.00 0.00 42 1015.5
20260504181759 26 242 0.0 3.2 0.00 0.00 0.00 41 1015.6
20260504181753 26 321 0.0 8.0 0.00 0.00 0.00 41 1015.5
20260504181735 26 105 0.0 8.0 0.00 0.00 0.00 42 1015.5
20260504181620 26 284 0.0 1.6 0.00 0.00 0.00 43 1015.7
20260504181615 26 205 0.0 3.2 0.00 0.00 0.00 40 1015.7
20260504181601 26 89 0.0 8.0 0.00 0.00 0.00 43 1015.5
20260504181545 26 342 0.0 8.0 0.00 0.00 0.00 43 1015.5
20260504181432 26 242 0.0 3.2 0.00 0.00 0.00 42 1015.6
20260504181427 26 117 0.0 3.2 0.00 0.00 0.00 41 1015.6
20260504181411 26 246 0.0 8.0 0.00 0.00 0.00 44 1015.5
20260504181254 26 105 0.0 1.6 0.00 0.00 0.00 41 1015.7
20260504181247 26 88 0.0 8.0 0.00 0.00 0.00 45 1015.5
20260504181230 26 87 0.0 8.0 0.00 0.00 0.00 43 1015.5
20260504181212 26 242 0.0 3.2 0.00 0.00 0.00 41 1015.6
20260504181043 26 242 0.0 3.2 0.00 0.00 0.00 42 1015.6
20260504180645 26 105 0.0 1.6 0.00 0.00 0.00 42 1015.7
20260504180404 26 105 0.0 1.6 0.00 0.00 0.00 41 1015.7
20260504180214 26 214 0.0 3.2 0.00 0.00 0.00 43 1015.8
20260504180206 26 214 0.0 3.2 0.00 0.00 0.00 41 1015.7
20260504175948 26 207 1.6 3.2 0.00 0.00 0.00 42 1015.8
20260504175847 26 144 1.6 3.2 0.00 0.00 0.00 41 1015.8
20260504175747 26 144 1.6 3.2 0.00 0.00 0.00 41 1015.8
20260504175648 26 168 1.6 3.2 0.00 0.00 0.00 43 1015.8
20260504175548 26 167 1.6 3.2 0.00 0.00 0.00 42 1015.9
20260504175447 26 116 0.0 3.2 0.00 0.00 0.00 43 1015.9
20260504175356 26 101 0.0 3.2 0.00 0.00 0.00 43 1015.9
20260504175347 26 86 0.0 3.2 0.00 0.00 0.00 42 1015.9
20260504175312 26 187 0.0 3.2 0.00 0.00 0.00 41 1015.9
20260504175304 26 114 0.0 3.2 0.00 0.00 0.00 42 1015.9
20260504175047 26 143 0.0 3.2 0.00 0.00 0.00 41 1016.0
20260504174948 26 138 0.0 3.2 0.00 0.00 0.00 42 1015.9
20260504174856 26 123 0.0 1.6 0.00 0.00 0.00 44 1015.9
20260504174848 26 183 0.0 1.6 0.00 0.00 0.00 43 1015.9
20260504174747 26 145 0.0 1.6 0.00 0.00 0.00 41 1016.0
20260504174648 26 183 0.0 1.6 0.00 0.00 0.00 42 1016.0
20260504174548 26 298 0.0 1.6 0.00 0.00 0.00 42 1016.0
20260504174517 26 274 0.0 1.6 0.00 0.00 0.00 42 1016.0
20260504174509 26 258 0.0 1.6 0.00 0.00 0.00 44 1015.9
20260504174453 26 331 0.0 1.6 0.00 0.00 0.00 45 1016.0
20260504174248 26 271 0.0 1.6 0.00 0.00 0.00 44 1016.0
20260504174159 26 264 0.0 1.6 0.00 0.00 0.00 42 1016.0
20260504174151 26 298 0.0 1.6 0.00 0.00 0.00 43 1015.9
20260504174133 26 303 0.0 1.6 0.00 0.00 0.00 44 1016.0
20260504173848 26 275 0.0 1.6 0.00 0.00 0.00 42 1016.0
20260504173747 25 205 0.0 3.2 0.00 0.00 0.00 44 1016.0
20260504173647 25 159 0.0 3.2 0.00 0.00 0.00 44 1016.0
20260504173547 25 188 0.0 3.2 0.00 0.00 0.00 43 1016.0
20260504173447 25 142 0.0 3.2 0.00 0.00 0.00 42 1016.0
20260504173347 25 237 0.0 3.2 0.00 0.00 0.00 43 1016.1
20260504173248 25 272 1.6 6.4 0.00 0.00 0.00 44 1016.1
20260504173212 25 234 1.6 6.4 0.00 0.00 0.00 44 1016.1
20260504173204 25 272 1.6 6.4 0.00 0.00 0.00 44 1016.1
20260504172948 25 31 1.6 6.4 0.00 0.00 0.00 44 1016.1
20260504172857 25 11 1.6 6.4 0.00 0.00 0.00 45 1016.2
20260504172847 25 5 1.6 6.4 0.00 0.00 0.00 45 1016.2
20260504172748 25 11 1.6 6.4 0.00 0.00 0.00 45 1016.2
20260504172648 25 105 1.6 6.4 0.00 0.00 0.00 44 1016.2
20260504172548 25 105 1.6 6.4 0.00 0.00 0.00 44 1016.2
20260504172447 25 85 1.6 6.4 0.00 0.00 0.00 42 1016.3
20260504172348 25 40 0.0 6.4 0.00 0.00 0.00 43 1016.3
20260504172246 25 161 0.0 4.8 0.00 0.00 0.00 42 1016.4
20260504172213 25 294 0.0 3.2 0.00 0.00 0.00 43 1016.4
20260504172205 25 286 0.0 3.2 0.00 0.00 0.00 44 1016.4
20260504171947 25 270 0.0 3.2 0.00 0.00 0.00 45 1016.4
20260504171857 25 266 0.0 3.2 0.00 0.00 0.00 45 1016.4
20260504171847 25 267 0.0 3.2 0.00 0.00 0.00 44 1016.4
20260504171812 25 286 0.0 3.2 0.00 0.00 0.00 43 1016.4
20260504171804 25 277 0.0 3.2 0.00 0.00 0.00 45 1016.3
20260504171547 25 314 0.0 3.2 0.00 0.00 0.00 46 1016.4
20260504171448 25 250 0.0 3.2 0.00 0.00 0.00 45 1016.4
20260504171357 25 209 0.0 3.2 0.00 0.00 0.00 46 1016.4
20260504171347 25 25 0.0 3.2 0.00 0.00 0.00 44 1016.4
20260504171247 25 111 0.0 3.2 0.00 0.00 0.00 46 1016.4
20260504171147 25 273 0.0 3.2 0.00 0.00 0.00 44 1016.4
20260504171047 25 279 0.0 3.2 0.00 0.00 0.00 43 1016.5
20260504170954 25 82 0.0 4.8 0.00 0.00 0.00 49 1016.5
20260504170948 25 283 0.0 4.8 0.00 0.00 0.00 46 1016.4
20260504170941 25 236 0.0 4.8 0.00 0.00 0.00 47 1016.5
20260504170927 25 126 0.0 4.8 0.00 0.00 0.00 48 1016.5
20260504170921 25 102 0.0 4.8 0.00 0.00 0.00 48 1016.5
20260504170547 25 191 0.0 4.8 0.00 0.00 0.00 48 1016.5
20260504170448 25 191 0.0 4.8 0.00 0.00 0.00 48 1016.5
20260504170357 24 175 0.0 4.8 0.00 0.00 0.00 47 1016.6
20260504170347 24 263 0.0 4.8 0.00 0.00 0.00 47 1016.6
20260504170248 24 111 0.0 4.8 0.00 0.00 0.00 46 1016.6
20260504170213 24 340 0.0 4.8 0.00 0.00 0.00 47 1016.6
20260504170205 24 112 1.6 4.8 0.00 0.00 0.00 47 1016.6
20260504160213 22 274 0.0 3.2 0.00 0.00 0.00 50 1017.3
20260504160111 22 288 0.0 3.2 0.00 0.00 0.00 50 1017.3
20260504151143 20 271 0.0 3.2 0.00 0.00 0.00 55 1017.5
20260504151043 20 156 0.0 3.2 0.00 0.00 0.00 54 1017.6
20260504150941 20 276 0.0 1.6 0.00 0.00 0.00 54 1017.6
20260504150850 20 274 0.0 1.6 0.00 0.00 0.00 54 1017.6
20260504150841 20 275 0.0 1.6 0.00 0.00 0.00 54 1017.6
20260504150741 20 269 0.0 1.6 0.00 0.00 0.00 53 1017.6
20260504150640 20 277 0.0 1.6 0.00 0.00 0.00 54 1017.8
20260504150540 20 288 0.0 1.6 0.00 0.00 0.00 55 1017.6
20260504150458 20 283 0.0 1.6 0.00 0.00 0.00 54 1017.8
20260504150444 20 282 0.0 3.2 0.00 0.00 0.00 56 1017.8
20260504150237 20 281 0.0 3.2 0.00 0.00 0.00 55 1017.8
20260504150224 20 282 0.0 3.2 0.00 0.00 0.00 54 1017.6
20260504150218 20 282 0.0 3.2 0.00 0.00 0.00 55 1017.6
20260504150208 20 281 0.0 3.2 0.00 0.00 0.00 55 1017.8
20260504141259 18 215 0.0 1.6 0.00 0.00 0.00 62 1018.0
20260504141158 18 209 0.0 1.6 0.00 0.00 0.00 61 1018.0
20260504141058 18 173 0.0 1.6 0.00 0.00 0.00 61 1018.0
20260504141018 18 259 0.0 1.6 0.00 0.00 0.00 61 1018.1
20260504140856 17 258 0.0 1.6 0.00 0.00 0.00 60 1018.1
20260504140847 17 259 0.0 1.6 0.00 0.00 0.00 60 1018.1
20260504140757 17 259 0.0 1.6 0.00 0.00 0.00 61 1018.1
20260504140655 17 279 0.0 1.6 0.00 0.00 0.00 62 1018.1
20260504140605 17 279 0.0 1.6 0.00 0.00 0.00 61 1018.1
20260504140512 17 277 0.0 1.6 0.00 0.00 0.00 62 1018.1
20260504140455 17 277 0.0 1.6 0.00 0.00 0.00 61 1018.1
20260504140251 17 277 0.0 1.6 0.00 0.00 0.00 62 1018.1
20260504140214 17 121 0.0 1.6 0.00 0.00 0.00 65 1018.1
20260504140207 17 277 0.0 1.6 0.00 0.00 0.00 64 1018.1
20260504130615 12 155 0.0 1.6 0.00 0.00 0.00 88 1018.1
20260504130516 11 176 0.0 1.6 0.00 0.00 0.00 88 1018.1
20260504130415 11 176 0.0 1.6 0.00 0.00 0.00 89 1018.1
20260504130314 11 176 0.0 1.6 0.00 0.00 0.00 89 1018.1
20260504130213 11 213 0.0 1.6 0.00 0.00 0.00 91 1018.1
20260504130112 11 213 0.0 1.6 0.00 0.00 0.00 92 1018.1
20260504120215 6 271 0.0 0.0 0.00 0.00 0.00 95 1018.2
20260504110643 3 271 0.0 0.0 0.00 0.00 0.00 94 1017.9
20260504110543 3 271 0.0 0.0 0.00 0.00 0.00 94 1017.8
20260504110444 3 271 0.0 0.0 0.00 0.00 0.00 94 1017.8
20260504110336 3 271 0.0 0.0 0.00 0.00 0.00 94 1017.8
20260504110243 3 271 0.0 0.0 0.00 0.00 0.00 94 1017.8
20260504110139 3 271 0.0 0.0 0.00 0.00 0.00 94 1017.6
20260504100559 4 271 0.0 0.0 0.00 0.00 0.00 94 1017.4
20260504100253 4 271 0.0 0.0 0.00 0.00 0.00 94 1017.4
20260504100154 4 271 0.0 0.0 0.00 0.00 0.00 94 1017.5
20260504100120 4 271 0.0 0.0 0.00 0.00 0.00 94 1017.4
20260504100111 4 271 0.0 0.0 0.00 0.00 0.00 94 1017.4
20260504090109 5 271 0.0 0.0 0.00 0.00 0.00 94 1017.4
20260504081910 5 271 0.0 0.0 0.00 0.00 0.00 94 1017.1
20260504081827 5 271 0.0 0.0 0.00 0.00 0.00 94 1017.1
20260504081809 5 271 0.0 0.0 0.00 0.00 0.00 94 1017.2
20260504081709 5 271 0.0 0.0 0.00 0.00 0.00 94 1017.1
20260504081610 5 271 0.0 0.0 0.00 0.00 0.00 94 1017.1
20260504081510 5 271 0.0 0.0 0.00 0.00 0.00 94 1017.1
20260504081409 5 271 0.0 0.0 0.00 0.00 0.00 94 1017.1
20260504081308 5 271 0.0 0.0 0.00 0.00 0.00 94 1017.1
20260504081209 5 271 0.0 0.0 0.00 0.00 0.00 94 1017.1
20260504081110 5 271 0.0 0.0 0.00 0.00 0.00 94 1017.1
20260504081041 5 271 0.0 0.0 0.00 0.00 0.00 94 1017.2
20260504081029 5 271 0.0 0.0 0.00 0.00 0.00 94 1017.2
20260504080910 5 271 0.0 0.0 0.00 0.00 0.00 94 1017.1
20260504080902 5 271 0.0 0.0 0.00 0.00 0.00 94 1017.2
20260504080857 5 271 0.0 0.0 0.00 0.00 0.00 94 1017.2
20260504080841 5 271 0.0 0.0 0.00 0.00 0.00 94 1017.1
20260504080510 5 271 0.0 0.0 0.00 0.00 0.00 94 1017.2
20260504080440 5 271 0.0 0.0 0.00 0.00 0.00 94 1017.2
20260504080310 5 271 0.0 0.0 0.00 0.00 0.00 94 1017.2
20260504080209 5 271 0.0 0.0 0.00 0.00 0.00 94 1017.2
20260504080109 5 271 0.0 0.0 0.00 0.00 0.00 94 1017.1
20260504070331 6 271 0.0 0.0 0.00 0.00 0.00 93 1017.6
20260504070325 6 271 0.0 0.0 0.00 0.00 0.00 93 1017.5
20260504070258 6 271 0.0 0.0 0.00 0.00 0.00 93 1017.5
20260504070158 6 271 0.0 0.0 0.00 0.00 0.00 93 1017.5
20260504070123 6 271 0.0 0.0 0.00 0.00 0.00 93 1017.5
20260504070115 6 271 0.0 0.0 0.00 0.00 0.00 93 1017.5
20260504060221 7 271 0.0 0.0 0.00 0.00 0.00 90 1018.2
20260504060119 7 271 0.0 0.0 0.00 0.00 0.00 90 1018.2
20260504050642 8 271 0.0 0.0 0.00 0.00 0.00 86 1018.1
20260504050538 8 271 0.0 0.0 0.00 0.00 0.00 86 1018.1
20260504050440 8 271 0.0 0.0 0.00 0.00 0.00 86 1018.0
20260504050321 8 271 0.0 0.0 0.00 0.00 0.00 86 1018.1
20260504050236 8 271 0.0 0.0 0.00 0.00 0.00 86 1018.1
20260504050138 8 271 0.0 0.0 0.00 0.00 0.00 86 1018.0
20260504045934 8 271 0.0 0.0 0.00 0.00 0.00 86 1018.0
20260504045820 8 271 0.0 0.0 0.00 0.00 0.00 85 1018.0
20260504045757 8 271 0.0 0.0 0.00 0.00 0.00 86 1018.0
20260504045749 8 271 0.0 0.0 0.00 0.00 0.00 86 1018.0
20260504045532 8 271 0.0 0.0 0.00 0.00 0.00 86 1018.0
20260504045432 8 271 0.0 0.0 0.00 0.00 0.00 86 1018.0
20260504045335 8 271 0.0 0.0 0.00 0.00 0.00 85 1018.1
20260504045321 8 271 0.0 0.0 0.00 0.00 0.00 86 1018.1
20260504045254 8 271 0.0 0.0 0.00 0.00 0.00 86 1018.1
20260504045246 8 271 0.0 0.0 0.00 0.00 0.00 86 1018.1
20260504045028 8 271 0.0 0.0 0.00 0.00 0.00 86 1018.1
20260504044944 8 271 0.0 0.0 0.00 0.00 0.00 86 1018.1
20260504044929 8 271 0.0 0.0 0.00 0.00 0.00 85 1018.1
20260504044725 8 271 0.0 0.0 0.00 0.00 0.00 85 1018.1
20260504044624 8 271 0.0 0.0 0.00 0.00 0.00 85 1018.1
20260504044524 8 271 0.0 0.0 0.00 0.00 0.00 85 1018.1
20260504044424 8 271 0.0 0.0 0.00 0.00 0.00 85 1018.1
20260504044321 8 271 0.0 0.0 0.00 0.00 0.00 85 1018.1
20260504044220 8 271 0.0 0.0 0.00 0.00 0.00 85 1018.1
20260504044147 8 271 0.0 0.0 0.00 0.00 0.00 84 1018.1
20260504044140 8 271 0.0 0.0 0.00 0.00 0.00 85 1018.1
20260504043920 9 271 0.0 0.0 0.00 0.00 0.00 84 1018.1
20260504043820 9 271 0.0 0.0 0.00 0.00 0.00 84 1018.1
20260504043721 9 271 0.0 0.0 0.00 0.00 0.00 84 1018.2
20260504043644 9 271 0.0 0.0 0.00 0.00 0.00 83 1018.2
20260504043637 9 271 0.0 0.0 0.00 0.00 0.00 84 1018.2
20260504043417 9 271 0.0 0.0 0.00 0.00 0.00 83 1018.2
20260504043317 9 271 0.0 0.0 0.00 0.00 0.00 82 1018.2
20260504043217 9 271 0.0 0.0 0.00 0.00 0.00 82 1018.2
20260504043117 9 271 0.0 0.0 0.00 0.00 0.00 82 1018.2
20260504043109 9 271 0.0 0.0 0.00 0.00 0.00 82 1018.2
20260504043104 9 271 0.0 0.0 0.00 0.00 0.00 82 1018.2
20260504043050 9 271 0.0 0.0 0.00 0.00 0.00 82 1018.2
20260504042918 9 271 0.0 0.0 0.00 0.00 0.00 82 1018.2
20260504042713 9 271 0.0 0.0 0.00 0.00 0.00 82 1018.2
20260504042614 9 271 0.0 0.0 0.00 0.00 0.00 81 1018.3
20260504042510 9 271 0.0 0.0 0.00 0.00 0.00 81 1018.3
20260504042438 9 271 0.0 0.0 0.00 0.00 0.00 81 1018.3
20260504042429 9 271 0.0 0.0 0.00 0.00 0.00 81 1018.3
20260504042415 9 271 0.0 0.0 0.00 0.00 0.00 81 1018.3
20260504042209 9 271 0.0 0.0 0.00 0.00 0.00 81 1018.4
20260504042108 9 271 0.0 0.0 0.00 0.00 0.00 81 1018.3
20260504042007 9 271 0.0 0.0 0.00 0.00 0.00 81 1018.3
20260504041933 9 271 0.0 0.0 0.00 0.00 0.00 81 1018.3
20260504041804 9 271 0.0 0.0 0.00 0.00 0.00 81 1018.3
20260504041705 9 271 0.0 0.0 0.00 0.00 0.00 81 1018.3
20260504041605 9 271 0.0 0.0 0.00 0.00 0.00 81 1018.3
20260504041529 9 271 0.0 0.0 0.00 0.00 0.00 81 1018.2
20260504041519 9 271 0.0 0.0 0.00 0.00 0.00 81 1018.3
20260504041320 9 271 0.0 0.0 0.00 0.00 0.00 81 1018.2
20260504041301 9 271 0.0 0.0 0.00 0.00 0.00 81 1018.2
20260504041201 9 271 0.0 0.0 0.00 0.00 0.00 82 1018.2
20260504041100 9 271 0.0 0.0 0.00 0.00 0.00 82 1018.2
20260504041003 9 271 0.0 1.6 0.00 0.00 0.00 82 1018.2
20260504040955 9 271 0.0 1.6 0.00 0.00 0.00 83 1018.2
20260504040939 9 271 0.0 1.6 0.00 0.00 0.00 82 1018.2
20260504040822 9 271 0.0 1.6 0.00 0.00 0.00 82 1018.2
20260504040815 9 271 0.0 1.6 0.00 0.00 0.00 83 1018.2
20260504040621 9 271 0.0 1.6 0.00 0.00 0.00 84 1018.2
20260504040613 9 271 0.0 1.6 0.00 0.00 0.00 84 1018.2
20260504040355 9 271 0.0 1.6 0.00 0.00 0.00 84 1018.2
20260504040345 9 271 0.0 1.6 0.00 0.00 0.00 84 1018.1
20260504040339 9 263 0.0 0.0 0.00 0.00 0.00 85 1018.1
20260504040331 9 271 0.0 1.6 0.00 0.00 0.00 84 1018.1
20260504040322 9 271 0.0 1.6 0.00 0.00 0.00 84 1018.1
20260504035957 8 264 0.0 0.0 0.00 0.00 0.00 85 1018.2
20260504035951 8 264 0.0 0.0 0.00 0.00 0.00 85 1018.1
20260504035934 8 263 0.0 0.0 0.00 0.00 0.00 85 1018.1
20260504035816 8 263 0.0 0.0 0.00 0.00 0.00 85 1018.1
20260504035806 8 264 0.0 0.0 0.00 0.00 0.00 85 1018.1
20260504035548 8 263 0.0 0.0 0.00 0.00 0.00 85 1018.1
20260504035447 8 264 0.0 0.0 0.00 0.00 0.00 85 1018.2
20260504035347 9 263 0.0 0.0 0.00 0.00 0.00 85 1018.2
20260504035316 9 263 0.0 0.0 0.00 0.00 0.00 85 1018.2
20260504035245 9 264 0.0 0.0 0.00 0.00 0.00 85 1018.2
20260504035209 9 263 0.0 0.0 0.00 0.00 0.00 85 1018.3
20260504035159 9 263 0.0 0.0 0.00 0.00 0.00 85 1018.2
20260504034943 9 263 0.0 0.0 0.00 0.00 0.00 85 1018.3
20260504034926 9 263 0.0 0.0 0.00 0.00 0.00 85 1018.2
20260504034917 9 263 0.0 0.0 0.00 0.00 0.00 85 1018.1
20260504034907 9 264 0.0 0.0 0.00 0.00 0.00 85 1018.2
20260504034855 9 263 0.0 0.0 0.00 0.00 0.00 85 1018.3
20260504034846 9 263 0.0 0.0 0.00 0.00 0.00 85 1018.3
20260504034733 9 263 0.0 0.0 0.00 0.00 0.00 85 1018.2
20260504034720 9 263 0.0 0.0 0.00 0.00 0.00 85 1018.2
20260504034544 9 264 0.0 0.0 0.00 0.00 0.00 85 1018.2
20260504034242 9 263 0.0 0.0 0.00 0.00 0.00 85 1018.1
20260504034205 9 263 0.0 0.0 0.00 0.00 0.00 85 1018.2
20260504034156 9 264 0.0 0.0 0.00 0.00 0.00 85 1018.2
20260504033940 9 263 0.0 0.0 0.00 0.00 0.00 85 1018.2
20260504033816 9 264 0.0 0.0 0.00 0.00 0.00 85 1018.2
20260504033737 9 264 0.0 0.0 0.00 0.00 0.00 84 1018.2
20260504033637 9 264 0.0 0.0 0.00 0.00 0.00 84 1018.2
20260504033538 9 264 0.0 0.0 0.00 0.00 0.00 84 1018.2
20260504033437 9 264 0.0 0.0 0.00 0.00 0.00 83 1018.2
20260504033337 9 263 0.0 0.0 0.00 0.00 0.00 83 1018.2
20260504033316 9 264 0.0 0.0 0.00 0.00 0.00 83 1018.2
20260504033236 9 264 0.0 0.0 0.00 0.00 0.00 83 1018.2
20260504033137 9 264 0.0 0.0 0.00 0.00 0.00 83 1018.2
20260504033034 9 263 0.0 0.0 0.00 0.00 0.00 83 1018.2
20260504032934 9 264 0.0 0.0 0.00 0.00 0.00 83 1018.2
20260504032833 9 264 0.0 0.0 0.00 0.00 0.00 83 1018.2
20260504032822 9 263 0.0 0.0 0.00 0.00 0.00 83 1018.2
20260504032815 9 263 0.0 0.0 0.00 0.00 0.00 83 1018.1
20260504032800 9 263 0.0 0.0 0.00 0.00 0.00 83 1018.2
20260504032751 9 263 0.0 0.0 0.00 0.00 0.00 83 1018.1
20260504032613 9 264 0.0 0.0 0.00 0.00 0.00 83 1018.2
20260504032601 9 264 0.0 0.0 0.00 0.00 0.00 83 1018.2
20260504032426 9 263 0.0 0.0 0.00 0.00 0.00 83 1018.2
20260504032228 9 263 0.0 0.0 0.00 0.00 0.00 83 1018.2
20260504032129 10 263 0.0 0.0 0.00 0.00 0.00 83 1018.2
20260504032029 10 263 0.0 0.0 0.00 0.00 0.00 83 1018.2
20260504031928 10 263 0.0 0.0 0.00 0.00 0.00 83 1018.2
20260504031829 10 264 0.0 0.0 0.00 0.00 0.00 83 1018.1
20260504031816 10 263 0.0 0.0 0.00 0.00 0.00 83 1018.1
20260504031729 10 263 0.0 0.0 0.00 0.00 0.00 83 1018.1
20260504031650 10 264 0.0 0.0 0.00 0.00 0.00 83 1018.1
20260504031642 10 263 0.0 0.0 0.00 0.00 0.00 83 1018.1
20260504031426 10 263 0.0 0.0 0.00 0.00 0.00 83 1018.1
20260504031359 10 263 0.0 0.0 0.00 0.00 0.00 83 1018.1
20260504031348 10 264 0.0 0.0 0.00 0.00 0.00 83 1018.1
20260504031339 10 263 0.0 0.0 0.00 0.00 0.00 83 1018.1
20260504031125 10 263 0.0 0.0 0.00 0.00 0.00 83 1018.1
20260504031111 10 264 0.0 0.0 0.00 0.00 0.00 80 1018.1
20260504031057 10 264 0.0 0.0 0.00 0.00 0.00 82 1018.1
20260504031052 10 264 0.0 0.0 0.00 0.00 0.00 81 1018.2
20260504031043 10 263 0.0 0.0 0.00 0.00 0.00 82 1018.1
20260504030917 10 263 0.0 0.0 0.00 0.00 0.00 81 1018.2
20260504030912 10 263 0.0 0.0 0.00 0.00 0.00 81 1018.2
20260504030849 10 263 0.0 0.0 0.00 0.00 0.00 82 1018.1
20260504030718 10 264 0.0 0.0 0.00 0.00 0.00 81 1018.2
20260504030558 10 263 0.0 0.0 0.00 0.00 0.00 81 1018.2
20260504030424 10 263 0.0 0.0 0.00 0.00 0.00 81 1018.2
20260504030222 10 263 0.0 0.0 0.00 0.00 0.00 80 1018.1
20260504030122 10 264 0.0 0.0 0.00 0.00 0.00 80 1018.1
20260504030022 10 263 0.0 0.0 0.00 0.00 0.00 80 1018.1
20260504025941 10 263 0.0 0.0 0.00 0.00 0.00 80 1018.2
20260504025923 10 264 0.0 0.0 0.00 0.00 0.00 80 1018.1
20260504025721 10 264 0.0 0.0 0.00 0.00 0.00 80 1018.1
20260504025620 10 263 0.0 0.0 0.00 0.00 0.00 80 1018.2
20260504025520 10 263 0.0 0.0 0.00 0.00 0.00 80 1018.2
20260504025418 10 264 0.0 0.0 0.00 0.00 0.00 80 1018.2
20260504025407 11 264 0.0 0.0 0.00 0.00 0.00 78 1018.1
20260504025358 10 263 0.0 0.0 0.00 0.00 0.00 80 1018.3
20260504025341 10 264 0.0 0.0 0.00 0.00 0.00 80 1018.2
20260504025209 10 264 0.0 0.0 0.00 0.00 0.00 79 1018.2
20260504025045 10 264 0.0 0.0 0.00 0.00 0.00 79 1018.2
20260504024922 11 263 0.0 0.0 0.00 0.00 0.00 79 1018.1
20260504024916 11 264 0.0 0.0 0.00 0.00 0.00 79 1018.2
20260504024854 11 264 0.0 0.0 0.00 0.00 0.00 79 1018.2
20260504024737 11 263 0.0 0.0 0.00 0.00 0.00 78 1018.1
20260504024728 11 263 0.0 0.0 0.00 0.00 0.00 79 1018.2
20260504024554 11 264 0.0 0.0 0.00 0.00 0.00 79 1018.1
20260504024421 11 264 0.0 0.0 0.00 0.00 0.00 78 1018.1
20260504024309 11 264 0.0 0.0 0.00 0.00 0.00 78 1018.1
20260504024304 11 263 0.0 0.0 0.00 0.00 0.00 78 1018.1
20260504024259 11 263 0.0 0.0 0.00 0.00 0.00 77 1018.1
20260504024255 11 263 0.0 0.0 0.00 0.00 0.00 77 1018.1
20260504024242 11 264 0.0 0.0 0.00 0.00 0.00 78 1018.1
20260504024107 11 264 0.0 0.0 0.00 0.00 0.00 78 1018.1
20260504023934 11 264 0.0 0.0 0.00 0.00 0.00 78 1018.1
20260504023612 11 263 0.0 0.0 0.00 0.00 0.00 76 1018.1
20260504023520 11 263 0.0 0.0 0.00 0.00 0.00 74 1018.1
20260504023514 11 263 0.0 0.0 0.00 0.00 0.00 76 1018.0
20260504023454 11 263 0.0 0.0 0.00 0.00 0.00 75 1018.1
20260504023329 11 263 0.0 0.0 0.00 0.00 0.00 74 1018.0
20260504023110 11 264 0.0 0.0 0.00 0.00 0.00 74 1018.0
20260504023010 11 263 0.0 0.0 0.00 0.00 0.00 74 1018.1
20260504022943 11 263 0.0 0.0 0.00 0.00 0.00 73 1018.1
20260504022931 11 263 0.0 0.0 0.00 0.00 0.00 73 1018.1
20260504022915 11 264 0.0 0.0 0.00 0.00 0.00 73 1018.1
20260504022706 11 263 0.0 0.0 0.00 0.00 0.00 73 1018.0
20260504022607 11 263 0.0 0.0 0.00 0.00 0.00 73 1018.1
20260504022508 11 263 0.0 0.0 0.00 0.00 0.00 73 1018.1
20260504022404 12 263 0.0 0.0 0.00 0.00 0.00 73 1018.0
20260504022314 12 264 0.0 0.0 0.00 0.00 0.00 73 1018.0
20260504022305 12 263 0.0 0.0 0.00 0.00 0.00 73 1018.0
20260504022228 12 263 0.0 0.0 0.00 0.00 0.00 72 1018.0
20260504022220 12 263 0.0 0.0 0.00 0.00 0.00 72 1018.1
20260504022003 12 264 0.0 0.0 0.00 0.00 0.00 72 1018.0
20260504021901 12 264 0.0 0.0 0.00 0.00 0.00 72 1018.0
20260504021812 12 264 0.0 0.0 0.00 0.00 0.00 72 1018.0
20260504021800 12 264 0.0 0.0 0.00 0.00 0.00 72 1018.0
20260504021700 12 264 0.0 0.0 0.00 0.00 0.00 72 1018.0
20260504021559 12 263 0.0 0.0 0.00 0.00 0.00 72 1018.0
20260504021458 12 264 0.0 0.0 0.00 0.00 0.00 72 1018.0
20260504021358 12 264 0.0 0.0 0.00 0.00 0.00 72 1018.0
20260504021311 12 264 0.0 0.0 0.00 0.00 0.00 72 1017.9
20260504021257 12 264 0.0 0.0 0.00 0.00 0.00 72 1017.9
20260504021154 12 264 0.0 0.0 0.00 0.00 0.00 72 1018.0
20260504021055 12 264 0.0 0.0 0.00 0.00 0.00 71 1017.9
20260504020955 12 264 0.0 0.0 0.00 0.00 0.00 71 1018.0
20260504020852 12 263 0.0 0.0 0.00 0.00 0.00 71 1018.0
20260504020813 12 263 0.0 0.0 0.00 0.00 0.00 71 1017.9
20260504020752 12 264 0.0 0.0 0.00 0.00 0.00 71 1017.9
20260504020651 12 263 0.0 0.0 0.00 0.00 0.00 71 1017.9
20260504020550 12 264 0.0 0.0 0.00 0.00 0.00 71 1017.9
20260504020450 12 263 0.0 0.0 0.00 0.00 0.00 71 1017.9
20260504020349 12 264 0.0 0.0 0.00 0.00 0.00 71 1017.8
20260504020318 12 264 0.0 0.0 0.00 0.00 0.00 71 1017.8
20260504020312 12 264 0.0 0.0 0.00 0.00 0.00 70 1017.8
20260504020248 12 264 0.0 0.0 0.00 0.00 0.00 70 1017.8
20260504020148 12 264 0.0 0.0 0.00 0.00 0.00 70 1017.8
20260504020047 12 264 0.0 0.0 0.00 0.00 0.00 70 1017.8
20260504015946 12 264 0.0 0.0 0.00 0.00 0.00 70 1017.8
20260504015925 12 264 0.0 0.0 0.00 0.00 0.00 71 1017.8
20260504015745 12 264 0.0 0.0 0.00 0.00 0.00 71 1017.8
20260504015643 12 263 0.0 0.0 0.00 0.00 0.00 71 1017.6
20260504015542 12 263 0.0 0.0 0.00 0.00 0.00 70 1017.6
20260504015506 13 264 0.0 0.0 0.00 0.00 0.00 70 1017.6
20260504015458 12 264 0.0 0.0 0.00 0.00 0.00 70 1017.6
20260504015313 13 264 0.0 0.0 0.00 0.00 0.00 70 1017.6
20260504015241 13 263 0.0 0.0 0.00 0.00 0.00 70 1017.6
20260504015138 13 263 0.0 0.0 0.00 0.00 0.00 69 1017.6
20260504015038 13 264 0.0 0.0 0.00 0.00 0.00 69 1017.6
20260504014939 13 264 0.0 0.0 0.00 0.00 0.00 69 1017.6
20260504014818 13 264 0.0 0.0 0.00 0.00 0.00 68 1017.5
20260504014811 13 264 0.0 0.0 0.00 0.00 0.00 69 1017.6
20260504014737 13 264 0.0 0.0 0.00 0.00 0.00 68 1017.6
20260504014634 13 263 0.0 0.0 0.00 0.00 0.00 68 1017.6
20260504014609 13 263 0.0 0.0 0.00 0.00 0.00 68 1017.5
20260504014558 13 264 0.0 0.0 0.00 0.00 0.00 68 1017.6
20260504014539 13 264 0.0 0.0 0.00 0.00 0.00 68 1017.6
20260504014234 13 263 0.0 0.0 0.00 0.00 0.00 68 1017.5
20260504014131 13 264 0.0 0.0 0.00 0.00 0.00 68 1017.5
20260504014032 13 264 0.0 0.0 0.00 0.00 0.00 68 1017.5
20260504013930 13 263 0.0 0.0 0.00 0.00 0.00 68 1017.5
20260504013829 13 263 0.0 0.0 0.00 0.00 0.00 67 1017.5
20260504013811 13 264 0.0 0.0 0.00 0.00 0.00 67 1017.5
20260504013753 13 264 0.0 0.0 0.00 0.00 0.00 67 1017.5
20260504013744 13 263 0.0 0.0 0.00 0.00 0.00 67 1017.5
20260504013527 13 264 0.0 0.0 0.00 0.00 0.00 67 1017.5
20260504013425 13 264 0.0 0.0 0.00 0.00 0.00 67 1017.5
20260504013324 13 264 0.0 0.0 0.00 0.00 0.00 67 1017.5
20260504013311 13 263 0.0 0.0 0.00 0.00 0.00 66 1017.5
20260504013224 13 263 0.0 0.0 0.00 0.00 0.00 66 1017.4
20260504013146 13 264 0.0 0.0 0.00 0.00 0.00 65 1017.3
20260504013139 13 264 0.0 0.0 0.00 0.00 0.00 65 1017.4
20260504012925 13 264 0.0 0.0 0.00 0.00 0.00 65 1017.3
20260504012825 13 264 0.0 0.0 0.00 0.00 0.00 65 1017.3
20260504012810 13 263 0.0 0.0 0.00 0.00 0.00 65 1017.3
20260504012724 13 264 0.0 0.0 0.00 0.00 0.00 64 1017.4
20260504012710 14 264 0.0 0.0 0.00 0.00 0.00 64 1017.3
20260504012705 14 264 0.0 0.0 0.00 0.00 0.00 64 1017.3
20260504012654 14 264 0.0 0.0 0.00 0.00 0.00 64 1017.3
20260504012320 14 263 0.0 0.0 0.00 0.00 0.00 64 1017.3
20260504012310 14 264 0.0 0.0 0.00 0.00 0.00 64 1017.3
20260504012221 14 263 0.0 0.0 0.00 0.00 0.00 64 1017.2
20260504012120 14 264 0.0 0.0 0.00 0.00 0.00 64 1017.2
20260504012021 14 264 0.0 0.0 0.00 0.00 0.00 64 1017.2
20260504011920 14 263 0.0 0.0 0.00 0.00 0.00 64 1017.2
20260504011809 14 263 0.0 0.0 0.00 0.00 0.00 64 1017.2
20260504011718 14 263 0.0 0.0 0.00 0.00 0.00 64 1017.2
20260504011619 14 264 0.0 0.0 0.00 0.00 0.00 64 1017.2
20260504011546 14 264 0.0 0.0 0.00 0.00 0.00 65 1017.2
20260504011536 14 264 0.0 0.0 0.00 0.00 0.00 65 1017.2
20260504011318 14 263 0.0 0.0 0.00 0.00 0.00 65 1017.1
20260504011311 14 264 0.0 0.0 0.00 0.00 0.00 65 1017.1
20260504011216 14 264 0.0 0.0 0.00 0.00 0.00 65 1017.1
20260504011117 14 264 0.0 0.0 0.00 0.00 0.00 65 1017.2
20260504011016 14 264 0.0 0.0 0.00 0.00 0.00 65 1017.2
20260504010917 14 264 0.0 0.0 0.00 0.00 0.00 65 1017.1
20260504010811 14 264 0.0 0.0 0.00 0.00 0.00 65 1017.2
20260504010717 14 263 0.0 0.0 0.00 0.00 0.00 65 1017.1
20260504010617 14 263 0.0 0.0 0.00 0.00 0.00 65 1017.2
20260504010517 14 264 0.0 0.0 0.00 0.00 0.00 66 1017.1
20260504010416 14 264 0.0 0.0 0.00 0.00 0.00 65 1017.1
20260504010349 14 264 0.0 0.0 0.00 0.00 0.00 65 1017.1
20260504010330 14 263 0.0 0.0 0.00 0.00 0.00 65 1017.1
20260504010142 14 263 0.0 0.0 0.00 0.00 0.00 65 1017.2
20260504010133 14 264 0.0 0.0 0.00 0.00 0.00 65 1017.1
20260504005918 14 263 0.0 0.0 0.00 0.00 0.00 65 1017.2
20260504005819 15 263 0.0 0.0 0.00 0.00 0.00 65 1017.1
20260504005811 15 264 0.0 0.0 0.00 0.00 0.00 65 1017.1
20260504005717 15 264 0.0 0.0 0.00 0.00 0.00 65 1017.1
20260504005617 15 264 0.0 0.0 0.00 0.00 0.00 65 1017.1
20260504005518 15 264 0.0 0.0 0.00 0.00 0.00 64 1017.1
20260504005416 15 264 0.0 0.0 0.00 0.00 0.00 64 1017.1
20260504005318 15 263 0.0 0.0 0.00 0.00 0.00 64 1017.1
20260504005311 15 264 0.0 0.0 0.00 0.00 0.00 64 1017.1
20260504005216 15 264 0.0 0.0 0.00 0.00 0.00 64 1017.1
20260504005117 15 263 0.0 0.0 0.00 0.00 0.00 64 1017.1
20260504005016 15 264 0.0 0.0 0.00 0.00 0.00 64 1017.1
20260504004917 15 264 0.0 0.0 0.00 0.00 0.00 64 1017.1
20260504004809 15 264 0.0 0.0 0.00 0.00 0.00 64 1017.1
20260504004717 15 263 0.0 0.0 0.00 0.00 0.00 64 1017.1
20260504004617 15 263 0.0 0.0 0.00 0.00 0.00 63 1017.1
20260504004517 15 264 0.0 0.0 0.00 0.00 0.00 63 1017.0
20260504004417 15 264 0.0 0.0 0.00 0.00 0.00 63 1017.1
20260504004311 15 263 0.0 0.0 0.00 0.00 0.00 62 1017.1
20260504004307 15 263 0.0 0.0 0.00 0.00 0.00 62 1017.0
20260504004301 15 264 0.0 0.0 0.00 0.00 0.00 62 1017.1
20260504004251 15 264 0.0 0.0 0.00 0.00 0.00 62 1017.1
20260504003916 15 263 0.0 0.0 0.00 0.00 0.00 62 1017.1
20260504003850 15 263 0.0 1.6 0.00 0.00 0.00 62 1017.0
20260504003831 15 264 0.0 1.6 0.00 0.00 0.00 62 1017.1
20260504003616 15 264 0.0 1.6 0.00 0.00 0.00 61 1017.0
20260504003517 16 263 0.0 1.6 0.00 0.00 0.00 62 1017.0
20260504003416 16 263 0.0 1.6 0.00 0.00 0.00 60 1016.9
20260504003319 16 264 0.0 1.6 0.00 0.00 0.00 60 1017.0
20260504003310 16 263 0.0 1.6 0.00 0.00 0.00 60 1017.0
20260504003216 16 264 0.0 1.6 0.00 0.00 0.00 60 1016.9
20260504003116 16 264 0.0 1.6 0.00 0.00 0.00 60 1016.9
20260504003017 16 264 0.0 1.6 0.00 0.00 0.00 60 1016.9
20260504002916 16 263 0.0 1.6 0.00 0.00 0.00 60 1016.9
20260504002825 16 264 0.0 0.0 0.00 0.00 0.00 58 1016.9
20260504002811 16 264 0.0 0.0 0.00 0.00 0.00 60 1016.9
20260504002717 16 264 0.0 0.0 0.00 0.00 0.00 60 1016.9
20260504002617 16 263 0.0 0.0 0.00 0.00 0.00 59 1017.0
20260504002603 16 264 0.0 0.0 0.00 0.00 0.00 59 1016.9
20260504002550 16 264 0.0 0.0 0.00 0.00 0.00 60 1016.9
20260504002418 16 264 0.0 0.0 0.00 0.00 0.00 58 1016.9
20260504002215 16 264 0.0 0.0 0.00 0.00 0.00 58 1016.9
20260504002118 16 264 0.0 0.0 0.00 0.00 0.00 58 1016.9
20260504002042 17 264 0.0 0.0 0.00 0.00 0.00 57 1016.9
20260504002032 16 263 0.0 0.0 0.00 0.00 0.00 57 1016.9
20260504001809 17 264 0.0 0.0 0.00 0.00 0.00 57 1016.9
20260504001717 17 263 0.0 0.0 0.00 0.00 0.00 57 1016.9
20260504001641 17 264 0.0 0.0 0.00 0.00 0.00 57 1016.9
20260504001633 17 264 0.0 0.0 0.00 0.00 0.00 56 1016.9
20260504001416 17 264 0.0 0.0 0.00 0.00 0.00 57 1016.8
20260504001310 17 264 0.0 0.0 0.00 0.00 0.00 57 1016.8
20260504001216 17 264 0.0 0.0 0.00 0.00 0.00 56 1016.8
20260504001117 17 264 0.0 0.0 0.00 0.00 0.00 55 1016.8
20260504001017 17 264 0.0 0.0 0.00 0.00 0.00 55 1016.8
20260504000918 17 264 0.0 0.0 0.00 0.00 0.00 54 1016.8
20260504000811 17 264 0.0 0.0 0.00 0.00 0.00 54 1016.9
20260504000716 17 263 0.0 0.0 0.00 0.00 0.00 54 1016.8
20260504000616 17 264 0.0 0.0 0.00 0.00 0.00 53 1016.8
20260504000517 17 264 0.0 0.0 0.00 0.00 0.00 53 1016.8
20260504000416 17 264 0.0 0.0 0.00 0.00 0.00 53 1016.8
20260504000318 17 264 0.0 0.0 0.00 0.00 0.00 53 1016.8
20260504000309 17 263 0.0 0.0 0.00 0.00 0.00 53 1016.8
20260504000215 17 264 0.0 0.0 0.00 0.00 0.00 52 1016.8
20260504000142 18 264 0.0 0.0 0.00 0.00 0.00 52 1016.8
20260504000134 17 264 0.0 0.0 0.00 0.00 0.00 52 1016.8
20260503235917 18 264 0.0 0.0 0.00 0.00 0.00 52 1016.8
20260503235818 18 264 0.0 0.0 0.00 0.00 0.00 51 1016.8
20260503235810 18 263 0.0 0.0 0.00 0.00 0.00 51 1016.8
20260503235741 18 264 0.0 0.0 0.00 0.00 0.00 52 1016.8
20260503235732 18 263 0.0 0.0 0.00 0.00 0.00 52 1016.8
20260503235516 18 264 0.0 0.0 0.00 0.00 0.00 53 1016.8
20260503235416 18 264 0.0 0.0 0.00 0.00 0.00 51 1016.8
20260503235310 18 264 0.0 0.0 0.00 0.00 0.00 51 1016.7
20260503235216 18 264 0.0 0.0 0.00 0.00 0.00 52 1016.7
20260503235117 18 264 0.0 0.0 0.00 0.00 0.00 52 1016.8
20260503235024 18 264 0.0 0.0 0.00 0.00 0.00 52 1016.8
20260503234917 18 264 0.0 0.0 0.00 0.00 0.00 52 1016.8
20260503234811 18 264 0.0 0.0 0.00 0.00 0.00 54 1016.8
20260503234717 18 264 0.0 0.0 0.00 0.00 0.00 53 1016.8
20260503234616 18 264 0.0 0.0 0.00 0.00 0.00 52 1016.8
20260503234517 18 264 0.0 0.0 0.00 0.00 0.00 52 1016.8
20260503234416 18 264 0.0 0.0 0.00 0.00 0.00 53 1016.8
20260503234318 18 265 0.0 0.0 0.00 0.00 0.00 53 1016.8
20260503234309 18 264 0.0 0.0 0.00 0.00 0.00 52 1016.8
20260503234217 18 264 0.0 0.0 0.00 0.00 0.00 52 1016.8
20260503234116 18 264 0.0 0.0 0.00 0.00 0.00 51 1016.8
20260503234016 18 264 0.0 1.6 0.00 0.00 0.00 50 1016.8
20260503233917 18 264 0.0 1.6 0.00 0.00 0.00 51 1016.8
20260503233809 18 264 0.0 1.6 0.00 0.00 0.00 50 1016.8
20260503233714 18 264 0.0 1.6 0.00 0.00 0.00 51 1016.8
20260503233614 18 264 0.0 1.6 0.00 0.00 0.00 48 1016.8
20260503233515 18 264 0.0 1.6 0.00 0.00 0.00 48 1016.8
20260503233415 18 264 0.0 1.6 0.00 0.00 0.00 48 1016.8
20260503233317 18 264 0.0 1.6 0.00 0.00 0.00 48 1016.7
20260503233308 18 263 0.0 1.6 0.00 0.00 0.00 48 1016.7
20260503233213 18 264 0.0 1.6 0.00 0.00 0.00 48 1016.7
20260503233115 18 264 0.0 1.6 0.00 0.00 0.00 48 1016.7
20260503233014 18 263 0.0 1.6 0.00 0.00 0.00 48 1016.7
20260503232914 18 264 0.0 1.6 0.00 0.00 0.00 50 1016.6
20260503232816 18 264 0.0 1.6 0.00 0.00 0.00 50 1016.7
20260503232809 18 263 0.0 1.6 0.00 0.00 0.00 50 1016.7
20260503232715 19 264 0.0 1.6 0.00 0.00 0.00 50 1016.6
20260503232702 19 264 0.0 1.6 0.00 0.00 0.00 47 1016.6
20260503232658 19 272 0.0 0.0 0.00 0.00 0.00 47 1016.7
20260503232646 19 264 0.0 1.6 0.00 0.00 0.00 47 1016.6
20260503232308 19 272 0.0 0.0 0.00 0.00 0.00 48 1016.6
20260503232211 19 272 0.0 0.0 0.00 0.00 0.00 47 1016.7
20260503232110 19 272 0.0 0.0 0.00 0.00 0.00 49 1016.7
20260503232009 19 272 0.0 0.0 0.00 0.00 0.00 50 1016.7
20260503231909 19 272 0.0 1.6 0.00 0.00 0.00 49 1016.7
20260503231806 19 272 0.0 1.6 0.00 0.00 0.00 48 1016.7
20260503231707 19 272 0.0 1.6 0.00 0.00 0.00 48 1016.8
20260503231604 19 272 0.0 1.6 0.00 0.00 0.00 47 1016.7
20260503231530 19 272 0.0 3.2 0.00 0.00 0.00 48 1016.8
20260503231521 19 272 0.0 1.6 0.00 0.00 0.00 47 1016.8
20260503231308 19 272 0.0 3.2 0.00 0.00 0.00 48 1016.8
20260503231303 19 272 0.0 3.2 0.00 0.00 0.00 48 1016.8
20260503231159 19 272 0.0 3.2 0.00 0.00 0.00 47 1016.8
20260503231150 19 272 0.0 3.2 0.00 0.00 0.00 47 1016.9
20260503231145 19 272 0.0 3.2 0.00 0.00 0.00 47 1016.8
20260503231134 19 272 0.0 3.2 0.00 0.00 0.00 47 1016.9
20260503230807 19 279 0.0 3.2 0.00 0.00 0.00 46 1016.9
20260503230757 19 279 0.0 3.2 0.00 0.00 0.00 47 1016.9
20260503230659 19 279 0.0 3.2 0.00 0.00 0.00 47 1016.8
20260503230556 19 279 0.0 3.2 0.00 0.00 0.00 47 1016.9
20260503230458 19 274 0.0 3.2 0.00 0.00 0.00 47 1016.9
20260503230356 19 278 0.0 1.6 0.00 0.00 0.00 48 1016.9
20260503230308 19 275 0.0 1.6 0.00 0.00 0.00 47 1016.8
20260503230255 19 276 0.0 1.6 0.00 0.00 0.00 47 1016.8
20260503230155 19 275 0.0 1.6 0.00 0.00 0.00 47 1016.9
20260503230053 19 276 0.0 1.6 0.00 0.00 0.00 48 1016.8
20260503225953 19 271 0.0 1.6 0.00 0.00 0.00 48 1016.8
20260503225852 19 269 0.0 1.6 0.00 0.00 0.00 47 1016.8
20260503225807 19 273 0.0 1.6 0.00 0.00 0.00 47 1016.9
20260503225750 19 273 0.0 3.2 0.00 0.00 0.00 47 1016.9
20260503225648 19 241 0.0 3.2 0.00 0.00 0.00 46 1016.9
20260503225547 19 241 0.0 3.2 0.00 0.00 0.00 46 1016.9
20260503225516 19 254 0.0 3.2 0.00 0.00 0.00 46 1016.9
20260503225505 19 241 0.0 3.2 0.00 0.00 0.00 46 1016.9
20260503225309 19 280 0.0 3.2 0.00 0.00 0.00 46 1016.9
20260503225246 19 280 0.0 3.2 0.00 0.00 0.00 45 1016.9
20260503225208 19 280 0.0 3.2 0.00 0.00 0.00 46 1016.9
20260503225201 19 280 0.0 3.2 0.00 0.00 0.00 45 1016.9
20260503225011 19 302 0.0 3.2 0.00 0.00 0.00 46 1016.9
20260503225001 19 280 0.0 3.2 0.00 0.00 0.00 46 1016.9
20260503224805 19 302 0.0 3.2 0.00 0.00 0.00 46 1016.9
20260503224741 20 273 0.0 1.6 0.00 0.00 0.00 46 1016.9
20260503224641 20 250 0.0 1.6 0.00 0.00 0.00 45 1016.9
20260503224540 20 250 0.0 1.6 0.00 0.00 0.00 45 1016.9
20260503224503 20 250 0.0 1.6 0.00 0.00 0.00 44 1016.9
20260503224454 20 250 0.0 1.6 0.00 0.00 0.00 44 1016.9
20260503224307 20 250 0.0 1.6 0.00 0.00 0.00 45 1016.9
20260503224238 20 259 0.0 1.6 0.00 0.00 0.00 45 1016.9
20260503224139 20 269 0.0 1.6 0.00 0.00 0.00 46 1016.9
20260503224037 20 269 0.0 1.6 0.00 0.00 0.00 46 1017.0
20260503223936 20 269 0.0 1.6 0.00 0.00 0.00 45 1016.9
20260503223836 20 268 0.0 1.6 0.00 0.00 0.00 45 1016.9
20260503223807 20 267 0.0 1.6 0.00 0.00 0.00 45 1016.9
20260503223735 20 268 0.0 1.6 0.00 0.00 0.00 45 1016.9
20260503223632 20 268 0.0 1.6 0.00 0.00 0.00 44 1017.0
20260503223533 20 267 0.0 1.6 0.00 0.00 0.00 46 1016.9
20260503223432 20 256 0.0 1.6 0.00 0.00 0.00 45 1016.9
20260503223332 20 257 0.0 1.6 0.00 0.00 0.00 46 1016.9
20260503223305 20 257 0.0 1.6 0.00 0.00 0.00 46 1017.0
20260503223256 20 257 0.0 1.6 0.00 0.00 0.00 46 1017.0
20260503223248 20 256 0.0 1.6 0.00 0.00 0.00 45 1017.0
20260503223028 20 254 0.0 1.6 0.00 0.00 0.00 45 1016.9
20260503222926 20 264 0.0 1.6 0.00 0.00 0.00 44 1017.0
20260503222803 20 290 0.0 1.6 0.00 0.00 0.00 44 1017.0
20260503222749 20 266 0.0 1.6 0.00 0.00 0.00 44 1017.1
20260503222740 20 266 0.0 1.6 0.00 0.00 0.00 44 1017.0
20260503222525 20 286 0.0 3.2 0.00 0.00 0.00 45 1017.1
20260503222451 20 118 0.0 3.2 0.00 0.00 0.00 44 1017.1
20260503222441 20 134 0.0 3.2 0.00 0.00 0.00 44 1017.0
20260503222311 20 99 0.0 3.2 0.00 0.00 0.00 42 1017.1
20260503222304 20 118 0.0 3.2 0.00 0.00 0.00 44 1017.0
20260503222225 20 134 0.0 3.2 0.00 0.00 0.00 44 1017.0
20260503222124 20 127 0.0 3.2 0.00 0.00 0.00 43 1017.1
20260503222106 20 127 0.0 3.2 0.00 0.00 0.00 42 1017.1
20260503222100 20 139 0.0 1.6 0.00 0.00 0.00 41 1017.0
20260503222050 20 126 0.0 3.2 0.00 0.00 0.00 43 1017.1
20260503222031 20 126 0.0 3.2 0.00 0.00 0.00 43 1017.0
20260503221723 20 99 0.0 3.2 0.00 0.00 0.00 43 1017.1
20260503221624 20 96 0.0 3.2 0.00 0.00 0.00 43 1017.1
20260503221523 20 310 0.0 3.2 0.00 0.00 0.00 44 1017.0
20260503221514 20 138 0.0 1.6 0.00 0.00 0.00 41 1017.0
20260503221459 20 137 0.0 1.6 0.00 0.00 0.00 42 1017.1
20260503221443 20 138 0.0 1.6 0.00 0.00 0.00 41 1017.0
20260503221120 20 123 0.0 1.6 0.00 0.00 0.00 41 1017.1
20260503221019 20 123 0.0 1.6 0.00 0.00 0.00 41 1017.1
20260503220921 20 137 0.0 1.6 0.00 0.00 0.00 40 1017.1
20260503220820 20 117 0.0 1.6 0.00 0.00 0.00 41 1017.1
20260503220810 20 238 0.0 3.2 0.00 0.00 0.00 42 1017.2
20260503220804 20 119 0.0 1.6 0.00 0.00 0.00 41 1017.1
20260503220721 20 194 0.0 1.6 0.00 0.00 0.00 41 1017.1
20260503220618 20 194 0.0 1.6 0.00 0.00 0.00 41 1017.1
20260503220602 20 249 0.0 3.2 0.00 0.00 0.00 42 1017.2
20260503220548 20 193 0.0 3.2 0.00 0.00 0.00 40 1017.1
20260503220530 20 194 0.0 3.2 0.00 0.00 0.00 41 1017.1
20260503220218 20 146 0.0 3.2 0.00 0.00 0.00 42 1017.2
20260503220117 20 117 0.0 3.2 0.00 0.00 0.00 41 1017.2
20260503220017 20 119 0.0 3.2 0.00 0.00 0.00 41 1017.1
20260503215918 20 248 0.0 3.2 0.00 0.00 0.00 41 1017.1
20260503215818 20 266 0.0 3.2 0.00 0.00 0.00 40 1017.1
20260503215801 20 274 0.0 3.2 0.00 0.00 0.00 40 1017.1
20260503215718 20 274 0.0 3.2 0.00 0.00 0.00 40 1017.1
20260503215619 20 271 0.0 4.8 0.00 0.00 0.00 38 1017.1
20260503215516 20 271 0.0 4.8 0.00 0.00 0.00 40 1017.1
20260503215415 20 161 0.0 4.8 0.00 0.00 0.00 40 1017.1
20260503215308 20 281 0.0 4.8 0.00 0.00 0.00 39 1017.2
20260503215304 20 160 0.0 4.8 0.00 0.00 0.00 40 1017.1
20260503215216 20 103 0.0 4.8 0.00 0.00 0.00 40 1017.2
20260503215114 20 103 0.0 4.8 0.00 0.00 0.00 39 1017.2
20260503215015 20 103 0.0 4.8 0.00 0.00 0.00 39 1017.2
20260503214937 20 256 0.0 3.2 0.00 0.00 0.00 38 1017.2
20260503214928 20 279 0.0 4.8 0.00 0.00 0.00 39 1017.2
20260503214911 20 281 0.0 4.8 0.00 0.00 0.00 39 1017.2
20260503214713 20 308 0.0 4.8 0.00 0.00 0.00 39 1017.1
20260503214610 20 276 0.0 3.2 0.00 0.00 0.00 39 1017.1
20260503214508 20 263 0.0 3.2 0.00 0.00 0.00 39 1017.2
20260503214428 20 133 0.0 3.2 0.00 0.00 0.00 38 1017.2
20260503214410 20 256 0.0 3.2 0.00 0.00 0.00 38 1017.2
20260503214207 20 244 0.0 3.2 0.00 0.00 0.00 37 1017.2
20260503214106 20 241 0.0 3.2 0.00 0.00 0.00 37 1017.2
20260503214005 20 238 0.0 3.2 0.00 0.00 0.00 38 1017.2
20260503213905 20 238 0.0 3.2 0.00 0.00 0.00 38 1017.2
20260503213815 21 113 0.0 3.2 0.00 0.00 0.00 38 1017.2
20260503213805 20 238 0.0 3.2 0.00 0.00 0.00 38 1017.2
20260503213704 20 244 0.0 3.2 0.00 0.00 0.00 39 1017.2
20260503213605 21 287 0.0 1.6 0.00 0.00 0.00 38 1017.2
20260503213504 21 322 0.0 1.6 0.00 0.00 0.00 39 1017.2
20260503213425 21 112 0.0 1.6 0.00 0.00 0.00 38 1017.2
20260503213409 21 113 0.0 3.2 0.00 0.00 0.00 38 1017.2
20260503213203 21 143 0.0 3.2 0.00 0.00 0.00 37 1017.2
20260503213152 21 246 0.0 3.2 0.00 0.00 0.00 38 1017.2
20260503213148 21 249 0.0 3.2 0.00 0.00 0.00 39 1017.2
20260503213135 21 99 0.0 3.2 0.00 0.00 0.00 39 1017.2
20260503212805 21 288 0.0 3.2 0.00 0.00 0.00 38 1017.2
20260503212800 21 288 0.0 3.2 0.00 0.00 0.00 38 1017.2
20260503212701 21 144 0.0 3.2 0.00 0.00 0.00 38 1017.3
20260503212559 21 350 0.0 3.2 0.00 0.00 0.00 38 1017.3
20260503212457 21 350 0.0 3.2 0.00 0.00 0.00 37 1017.3
20260503212400 21 40 1.6 3.2 0.00 0.00 0.00 35 1017.4
20260503212355 21 350 0.0 3.2 0.00 0.00 0.00 36 1017.3
20260503212301 21 12 0.0 3.2 0.00 0.00 0.00 36 1017.4
20260503212256 21 61 0.0 3.2 0.00 0.00 0.00 36 1017.4
20260503212156 21 70 0.0 3.2 0.00 0.00 0.00 36 1017.4
20260503212056 21 317 0.0 3.2 0.00 0.00 0.00 36 1017.4
20260503212048 21 40 1.6 3.2 0.00 0.00 0.00 35 1017.4
20260503212033 21 276 1.6 3.2 0.00 0.00 0.00 36 1017.4
20260503212015 21 330 1.6 3.2 0.00 0.00 0.00 36 1017.4
20260503211655 21 40 1.6 3.2 0.00 0.00 0.00 35 1017.4
20260503211554 21 277 1.6 3.2 0.00 0.00 0.00 35 1017.3
20260503211453 21 284 1.6 3.2 0.00 0.00 0.00 36 1017.4
20260503211404 22 245 0.0 1.6 0.00 0.00 0.00 35 1017.4
20260503211355 21 279 0.0 3.2 0.00 0.00 0.00 35 1017.4
20260503211328 21 15 0.0 3.2 0.00 0.00 0.00 34 1017.3
20260503211317 21 284 0.0 3.2 0.00 0.00 0.00 35 1017.3
20260503211312 21 284 0.0 3.2 0.00 0.00 0.00 35 1017.3
20260503211055 21 86 0.0 3.2 0.00 0.00 0.00 35 1017.4
20260503211016 21 273 0.0 3.2 0.00 0.00 0.00 35 1017.4
20260503210856 21 261 0.0 3.2 0.00 0.00 0.00 35 1017.4
20260503210848 22 304 0.0 1.6 0.00 0.00 0.00 34 1017.4
20260503210834 21 274 0.0 3.2 0.00 0.00 0.00 35 1017.3
20260503210828 21 234 0.0 3.2 0.00 0.00 0.00 35 1017.3
20260503210710 22 245 0.0 1.6 0.00 0.00 0.00 35 1017.4
20260503210702 22 271 0.0 3.2 0.00 0.00 0.00 34 1017.4
20260503210645 22 304 0.0 3.2 0.00 0.00 0.00 33 1017.4
20260503210511 22 284 0.0 1.6 0.00 0.00 0.00 35 1017.4
20260503210145 22 244 0.0 1.6 0.00 0.00 0.00 34 1017.4
20260503210045 22 241 0.0 1.6 0.00 0.00 0.00 35 1017.4
20260503210038 22 250 0.0 3.2 0.00 0.00 0.00 36 1017.5
20260503210031 22 269 0.0 1.6 0.00 0.00 0.00 35 1017.5
20260503210018 22 272 0.0 1.6 0.00 0.00 0.00 36 1017.4
20260503210001 22 272 0.0 1.6 0.00 0.00 0.00 37 1017.5
20260503205947 22 271 0.0 1.6 0.00 0.00 0.00 35 1017.5
20260503205727 22 274 0.0 3.2 0.00 0.00 0.00 36 1017.5
20260503205716 22 269 0.0 3.2 0.00 0.00 0.00 35 1017.5
20260503205339 22 274 0.0 3.2 0.00 0.00 0.00 37 1017.5
20260503205300 22 272 1.6 3.2 0.00 0.00 0.00 36 1017.6
20260503205240 22 241 1.6 3.2 0.00 0.00 0.00 36 1017.6
20260503205139 22 271 1.6 3.2 0.00 0.00 0.00 38 1017.6
20260503205039 22 158 1.6 3.2 0.00 0.00 0.00 37 1017.6
20260503205002 22 123 1.6 9.7 0.00 0.00 0.00 38 1017.6
20260503204952 22 161 1.6 3.2 0.00 0.00 0.00 38 1017.6
20260503204800 22 214 1.6 9.7 0.00 0.00 0.00 38 1017.8
20260503204734 22 181 1.6 9.7 0.00 0.00 0.00 38 1017.8
20260503204635 22 249 1.6 9.7 0.00 0.00 0.00 37 1017.8
20260503204534 22 252 1.6 9.7 0.00 0.00 0.00 37 1017.6
20260503204456 22 279 0.0 9.7 0.00 0.00 0.00 38 1017.6
20260503204448 22 287 0.0 9.7 0.00 0.00 0.00 37 1017.6
20260503204300 22 290 0.0 9.7 0.00 0.00 0.00 38 1017.6
20260503204230 22 274 0.0 9.7 0.00 0.00 0.00 38 1017.6
20260503204130 22 301 0.0 9.7 0.00 0.00 0.00 38 1017.8
20260503204031 22 271 0.0 9.7 0.00 0.00 0.00 38 1017.8
20260503203930 22 263 1.6 9.7 0.00 0.00 0.00 39 1017.8
20260503203827 22 242 0.0 4.8 0.00 0.00 0.00 40 1017.8
20260503203800 22 273 0.0 4.8 0.00 0.00 0.00 40 1017.8
20260503203729 22 257 0.0 4.8 0.00 0.00 0.00 40 1017.8
20260503203626 22 257 0.0 4.8 0.00 0.00 0.00 41 1017.8
20260503203524 22 276 0.0 4.8 0.00 0.00 0.00 41 1017.8
20260503203425 22 140 0.0 4.8 0.00 0.00 0.00 39 1017.9
20260503203324 22 112 1.6 4.8 0.00 0.00 0.00 40 1017.9
20260503203300 22 117 0.0 4.8 0.00 0.00 0.00 40 1017.9
20260503203224 22 128 0.0 4.8 0.00 0.00 0.00 40 1017.9
20260503203125 22 121 0.0 4.8 0.00 0.00 0.00 39 1017.9
20260503203024 22 78 0.0 4.8 0.00 0.00 0.00 39 1017.9
20260503202924 22 120 0.0 4.8 0.00 0.00 0.00 40 1018.0
20260503202823 22 309 0.0 4.8 0.00 0.00 0.00 39 1018.0
20260503202800 22 309 0.0 4.8 0.00 0.00 0.00 39 1018.0
20260503202724 22 84 0.0 4.8 0.00 0.00 0.00 39 1018.0
20260503202622 22 241 0.0 8.0 0.00 0.00 0.00 39 1018.0
20260503202521 22 276 1.6 8.0 0.00 0.00 0.00 39 1018.0
20260503202426 22 287 1.6 8.0 0.00 0.00 0.00 38 1018.1
20260503202421 22 241 0.0 8.0 0.00 0.00 0.00 39 1018.1
20260503202414 22 286 1.6 8.0 0.00 0.00 0.00 38 1018.1
20260503202359 22 300 1.6 8.0 0.00 0.00 0.00 39 1018.1
20260503202348 22 285 1.6 8.0 0.00 0.00 0.00 39 1018.1
20260503202022 22 287 1.6 8.0 0.00 0.00 0.00 39 1018.1
20260503201919 22 274 1.6 8.0 0.00 0.00 0.00 39 1018.1
20260503201821 22 250 1.6 8.0 0.00 0.00 0.00 39 1018.1
20260503201757 22 144 1.6 8.0 0.00 0.00 0.00 38 1018.1
20260503201718 22 184 1.6 8.0 0.00 0.00 0.00 37 1018.2
20260503201618 22 277 1.6 4.8 0.00 0.00 0.00 37 1018.2
20260503201543 22 207 1.6 4.8 0.00 0.00 0.00 38 1018.2
20260503201534 22 273 1.6 4.8 0.00 0.00 0.00 40 1018.2
20260503201316 22 194 1.6 4.8 0.00 0.00 0.00 39 1018.2
20260503201258 22 153 1.6 4.8 0.00 0.00 0.00 39 1018.2
20260503201242 22 242 1.6 4.8 0.00 0.00 0.00 37 1018.3
20260503201234 22 71 1.6 4.8 0.00 0.00 0.00 39 1018.2
20260503201016 22 244 1.6 4.8 0.00 0.00 0.00 37 1018.3
20260503200915 22 272 1.6 4.8 0.00 0.00 0.00 39 1018.3
20260503200817 22 134 1.6 4.8 0.00 0.00 0.00 39 1018.3
20260503200758 22 133 1.6 4.8 0.00 0.00 0.00 39 1018.3
20260503200716 22 98 1.6 4.8 0.00 0.00 0.00 37 1018.3
20260503200616 22 77 1.6 4.8 0.00 0.00 0.00 39 1018.4
20260503200515 22 331 1.6 3.2 0.00 0.00 0.00 37 1018.4
20260503200415 22 332 1.6 3.2 0.00 0.00 0.00 39 1018.4
20260503200316 22 229 1.6 3.2 0.00 0.00 0.00 37 1018.4
20260503200257 22 229 1.6 3.2 0.00 0.00 0.00 37 1018.4
20260503200214 22 229 1.6 4.8 0.00 0.00 0.00 38 1018.4
20260503200205 22 121 1.6 4.8 0.00 0.00 0.00 37 1018.5
20260503200201 22 241 1.6 4.8 0.00 0.00 0.00 36 1018.5
20260503200148 22 123 1.6 4.8 0.00 0.00 0.00 37 1018.4
20260503195811 22 109 1.6 4.8 0.00 0.00 0.00 38 1018.5
20260503195758 22 111 1.6 4.8 0.00 0.00 0.00 38 1018.5
20260503195710 22 168 0.0 4.8 0.00 0.00 0.00 38 1018.5
20260503195608 22 256 1.6 4.8 0.00 0.00 0.00 36 1018.6
20260503195508 22 271 1.6 4.8 0.00 0.00 0.00 37 1018.5
20260503195407 21 165 1.6 4.8 0.00 0.00 0.00 37 1018.6
20260503195308 21 179 1.6 4.8 0.00 0.00 0.00 37 1018.6
20260503195258 21 156 1.6 4.8 0.00 0.00 0.00 37 1018.6
20260503195232 21 175 0.0 6.4 0.00 0.00 0.00 37 1018.7
20260503195223 21 133 1.6 4.8 0.00 0.00 0.00 39 1018.7
20260503195006 21 213 0.0 6.4 0.00 0.00 0.00 38 1018.6
20260503194904 21 253 0.0 6.4 0.00 0.00 0.00 36 1018.7
20260503194811 21 203 0.0 6.4 0.00 0.00 0.00 36 1018.7
20260503194806 21 238 0.0 6.4 0.00 0.00 0.00 36 1018.7
20260503194757 21 238 0.0 6.4 0.00 0.00 0.00 36 1018.7
20260503194703 21 268 0.0 6.4 0.00 0.00 0.00 37 1018.7
20260503194559 21 275 0.0 6.4 0.00 0.00 0.00 36 1018.7
20260503194459 21 266 0.0 6.4 0.00 0.00 0.00 39 1018.7
20260503194422 21 276 0.0 6.4 0.00 0.00 0.00 37 1018.7
20260503194405 21 203 0.0 6.4 0.00 0.00 0.00 36 1018.7
20260503194158 21 127 1.6 9.7 0.00 0.00 0.00 35 1018.8
20260503194056 21 281 1.6 9.7 0.00 0.00 0.00 34 1018.8
20260503193958 21 281 1.6 9.7 0.00 0.00 0.00 36 1018.8
20260503193855 21 290 1.6 9.7 0.00 0.00 0.00 36 1018.9
20260503193801 21 254 1.6 9.7 0.00 0.00 0.00 38 1018.9
20260503193756 21 268 1.6 9.7 0.00 0.00 0.00 38 1018.9
20260503193653 21 267 1.6 9.7 0.00 0.00 0.00 36 1018.9
20260503193554 21 294 1.6 9.7 0.00 0.00 0.00 35 1019.0
20260503193454 22 294 1.6 9.7 0.00 0.00 0.00 37 1019.0
20260503193427 21 338 1.6 9.7 0.00 0.00 0.00 36 1019.0
20260503193416 21 309 1.6 9.7 0.00 0.00 0.00 35 1019.0
20260503193359 21 346 1.6 9.7 0.00 0.00 0.00 37 1019.0
20260503193153 21 114 1.6 8.0 0.00 0.00 0.00 38 1019.1
20260503193117 21 298 1.6 6.4 0.00 0.00 0.00 37 1019.0
20260503193109 21 263 1.6 6.4 0.00 0.00 0.00 37 1019.0
20260503192849 21 329 1.6 6.4 0.00 0.00 0.00 36 1019.0
20260503192757 21 337 1.6 6.4 0.00 0.00 0.00 36 1019.0
20260503192750 21 99 1.6 6.4 0.00 0.00 0.00 36 1019.0
20260503192650 21 118 1.6 8.0 0.00 0.00 0.00 36 1019.0
20260503192548 21 128 1.6 8.0 0.00 0.00 0.00 38 1019.1